Weather History for KVPC - October, 2013

Change the Weather History Date:

Sunday, October 13, 2013

  Actual Average Record
Temperature  
Mean Temperature 67 °F 61 °F  
Max Temperature 82 °F 74 °F - ()
Min Temperature 51 °F 49 °F - ()
Degree Days  
Heating Degree Days 0 5  
Month to date heating degree days 1 46  
Since 1 July heating degree days 2 64  
Cooling Degree Days 2 1  
Month to date cooling degree days 41 23  
Year to date cooling degree days 1432 1495  
Growing Degree Days 16 (Base 50)    
Moisture  
Dew Point 55 °F    
Average Humidity 71    
Maximum Humidity 100    
Minimum Humidity 42    
Precipitation  
Precipitation 0.00 in 0.08 in - ()
Month to date precipitation 0.90 1.56  
Year to date precipitation 39.77  
Snow  
Snow 0.00 in - - ()
Month to date snowfall 0.0  
Since 1 July snowfall 0.0  
Since 1 September snowfall 0.0  
Snow Depth 0.00 in    
Sea Level Pressure  
Sea Level Pressure 30.15 in    
Wind  
Wind Speed 2 mph (North)    
Max Wind Speed 14 mph    
Max Gust Speed 18 mph    
Visibility 8 miles    
Events      
T = Trace of Precipitation, MM = Missing Value Source: NWS Daily Summary

Daily Weather History Graph

Daily Weather History Graph

Search for Another Location

Airport or City:

Trip Planner

Search our weather history database for the weather conditions in past years. The results will help you decide how hot, cold, wet, or windy it might be!

Date:

Astronomy

Oct. 13, 2013 Rise Set
Actual Time 7:43 AM EDT 7:07 PM EDT
Civil Twilight 7:17 AM EDT 7:32 PM EDT
Nautical Twilight 6:48 AM EDT 8:01 PM EDT
Astronomical Twilight 6:19 AM EDT 8:30 PM EDT
Moon 3:45 PM EDT (10/13) 2:06 AM EDT (10/13)
Length of Visible Light 12h 14m
Length of Day
11h 24m
Waxing Gibbous, 69% of the Moon is Illuminated
Oct 13
Waxing Gibbous
Oct 18
Full
Oct 26
Last Quarter
Nov 3
New
Nov 10
First Quarter

Hourly Weather History & Observations

Time (EDT) Temp. Heat Index Dew Point Humidity Pressure Visibility Wind Dir Wind Speed Gust Speed Precip Events Conditions
12:53 AM 55.9 °F - 54.0 °F 93% 30.09 in 8.0 mi Calm Calm - N/A   Clear
1:53 AM 54.0 °F - 53.1 °F 97% 30.11 in 9.0 mi Calm Calm - N/A   Clear
2:53 AM 54.0 °F - 53.1 °F 97% 30.11 in 7.0 mi Calm Calm - N/A   Clear
3:53 AM 54.0 °F - 52.0 °F 93% 30.11 in 6.0 mi Calm Calm - N/A   Clear
4:53 AM 53.1 °F - 52.0 °F 96% 30.11 in 6.0 mi Calm Calm - N/A   Clear
5:53 AM 54.0 °F - 53.1 °F 97% 30.14 in 6.0 mi Calm Calm - 0.01 in   Partly Cloudy
6:46 AM 53.6 °F - 51.8 °F 94% 30.17 in 2.0 mi Calm Calm - N/A   Clear
6:53 AM 52.0 °F - 51.1 °F 97% 30.15 in 6.0 mi Calm Calm - N/A   Clear
7:53 AM 52.0 °F - 51.1 °F 97% 30.16 in 3.0 mi Calm Calm - N/A   Clear
8:04 AM 51.8 °F - 51.8 °F 100% 30.18 in 4.0 mi Calm Calm - N/A   Scattered Clouds
8:12 AM 51.8 °F - 50.0 °F 94% 30.18 in 4.0 mi Calm Calm - N/A   Mostly Cloudy
8:32 AM 53.6 °F - 53.6 °F 100% 30.19 in 5.0 mi Calm Calm - N/A   Partly Cloudy
8:53 AM 55.9 °F - 55.0 °F 97% 30.18 in 5.0 mi Calm Calm - N/A   Clear
9:53 AM 62.1 °F - 57.0 °F 84% 30.20 in 10.0 mi Calm Calm - N/A   Clear
10:53 AM 66.9 °F - 57.9 °F 73% 30.20 in 10.0 mi Calm Calm - N/A   Clear
11:53 AM 72.0 °F - 59.0 °F 64% 30.19 in 10.0 mi Calm Calm - N/A   Clear
12:53 PM 75.0 °F - 59.0 °F 57% 30.18 in 10.0 mi Variable 3.5 mph - N/A   Clear
1:53 PM 79.0 °F - 55.9 °F 45% 30.16 in 10.0 mi North 6.9 mph - N/A   Clear
2:53 PM 80.1 °F 80.1 °F 55.0 °F 42% 30.13 in 10.0 mi NNE 6.9 mph - N/A   Scattered Clouds
3:53 PM 81.0 °F 80.8 °F 55.9 °F 42% 30.12 in 10.0 mi North 6.9 mph - N/A   Scattered Clouds
4:53 PM 80.1 °F 80.4 °F 57.0 °F 45% 30.12 in 10.0 mi Variable 6.9 mph - N/A   Mostly Cloudy
5:53 PM 78.1 °F - 57.0 °F 48% 30.12 in 10.0 mi North 6.9 mph - N/A   Clear
6:53 PM 75.0 °F - 57.9 °F 55% 30.12 in 10.0 mi Calm Calm - N/A   Scattered Clouds
7:53 PM 70.0 °F - 57.9 °F 65% 30.14 in 10.0 mi Calm Calm - N/A   Scattered Clouds
8:53 PM 64.0 °F - 59.0 °F 84% 30.16 in 10.0 mi Calm Calm - N/A   Clear
9:53 PM 62.1 °F - 57.9 °F 86% 30.17 in 10.0 mi Calm Calm - N/A   Clear
10:53 PM 61.0 °F - 57.9 °F 90% 30.17 in 10.0 mi Calm Calm - N/A   Clear
11:53 PM 59.0 °F - 57.0 °F 93% 30.17 in 10.0 mi Calm Calm - N/A   Clear